Storm Lake, IA

2:36 AM CST on February 12, 2016 (GMT -0600)
Storm Lake Municipal

Weather History for KSLB - February, 2011

Change the Weather History Date:

Tuesday, February 1, 2011

  Actual Average Record
Temperature  
Mean Temperature 6 °F -  
Max Temperature 13 °F 28 °F 55 °F (2003)
Min Temperature 0 °F 14 °F -7 °F (2001)
Degree Days  
Heating Degree Days 58    
Moisture  
Dew Point 4 °F    
Average Humidity 89    
Maximum Humidity 93    
Minimum Humidity 83    
Precipitation  
Precipitation 0.00 in - - ()
Sea Level Pressure  
Sea Level Pressure 30.32 in    
Wind  
Wind Speed 17 mph (NNE)    
Max Wind Speed 26 mph    
Max Gust Speed 34 mph    
Visibility 3 miles    
Events      
Averages and records for this station are not official NWS values.
T = Trace of Precipitation, MM = Missing Value Source: NWS Daily Summary

Daily Weather History Graph

Daily Weather History Graph

Search for Another Location

Airport or City:

Trip Planner

Search our weather history database for the weather conditions in past years. The results will help you decide how hot, cold, wet, or windy it might be!

Date:

Astronomy

Feb. 01, 2011 Rise Set
Actual Time 7:35 AM CST 5:34 PM CST
Civil Twilight 7:05 AM CST 6:04 PM CST
Nautical Twilight 6:31 AM CST 6:37 PM CST
Astronomical Twilight 5:58 AM CST 7:11 PM CST
Moon 6:35 AM CST (2/1) 4:28 PM CST (2/1)
Length of Visible Light 10h 58m
Length of Day
9h 58m
Waning Crescent, 2% of the Moon is Illuminated
Feb 1
Waning Crescent
Feb 2
New
Feb 11
First Quarter
Feb 18
Full
Feb 24
Last Quarter

Hourly Weather History & Observations

Time (CST) Temp. Windchill Dew Point Humidity Pressure Visibility Wind Dir Wind Speed Gust Speed Precip Events Conditions
12:15 AM 13.3 °F -0.5 °F 11.5 °F 93% 30.29 in 5.0 mi NNE 11.5 mph - N/A   Overcast
12:35 AM 12.9 °F -0.9 °F 11.1 °F 93% 30.29 in 7.0 mi NNE 11.5 mph - N/A   Overcast
12:55 AM 12.7 °F -0.4 °F 11.1 °F 93% 30.29 in 7.0 mi NNE 10.4 mph - N/A   Overcast
1:15 AM 12.6 °F -2.0 °F 10.9 °F 93% 30.29 in 4.0 mi NNE 12.7 mph - N/A   Overcast
1:35 AM 12.2 °F -2.5 °F 10.4 °F 92% 30.30 in 5.0 mi NNE 12.7 mph - N/A   Overcast
1:55 AM 12.0 °F -3.4 °F 10.2 °F 92% 30.29 in 5.0 mi NNE 13.8 mph - N/A   Overcast
2:15 AM 12.2 °F -2.5 °F 10.2 °F 92% 30.28 in 4.0 mi NNE 12.7 mph - N/A   Overcast
2:35 AM 12.2 °F -3.1 °F 10.2 °F 92% 30.28 in 3.0 mi NNE 13.8 mph - N/A   Overcast
2:55 AM 11.8 °F -3.6 °F 9.7 °F 91% 30.28 in 4.0 mi NNE 13.8 mph - N/A   Overcast
3:15 AM 11.1 °F -5.1 °F 9.1 °F 92% 30.28 in 7.0 mi NNE 15.0 mph - N/A   Overcast
3:35 AM 10.8 °F -5.6 °F 8.8 °F 92% 30.29 in 10.0 mi NNE 15.0 mph - N/A   Overcast
3:55 AM 10.4 °F -6.0 °F 8.6 °F 92% 30.28 in 10.0 mi NNE 15.0 mph - N/A   Overcast
4:15 AM 10.6 °F -7.4 °F 8.6 °F 92% 30.25 in 7.0 mi NNE 18.4 mph - N/A   Overcast
4:35 AM 10.6 °F -7.4 °F 8.4 °F 91% 30.26 in 7.0 mi NNE 18.4 mph - N/A   Overcast
4:55 AM 9.9 °F -8.4 °F 7.9 °F 92% 30.26 in 7.0 mi NNE 18.4 mph 21.9 mph N/A   Overcast
5:15 AM 9.9 °F -6.7 °F 7.9 °F 92% 30.36 in 10.0 mi NE 15.0 mph - N/A   Overcast
5:35 AM 10.0 °F -5.9 °F 7.7 °F 90% 30.34 in 10.0 mi NE 13.8 mph - N/A   Overcast
5:55 AM 10.0 °F -6.5 °F 7.7 °F 90% 30.35 in 10.0 mi NNE 15.0 mph - N/A   Overcast
6:15 AM 9.7 °F -7.5 °F 7.5 °F 91% 30.34 in 10.0 mi NNE 16.1 mph 23.0 mph N/A   Overcast
6:35 AM 9.5 °F -9.3 °F 7.5 °F 92% 30.34 in 3.0 mi NNE 19.6 mph - N/A   Overcast
6:55 AM 9.3 °F -9.6 °F 7.2 °F 91% 30.33 in 1.0 mi NNE 19.6 mph 25.3 mph N/A   Overcast
7:15 AM 8.6 °F -11.0 °F 6.4 °F 91% 30.34 in 1.2 mi North 20.7 mph - N/A   Overcast
7:35 AM 8.1 °F -12.2 °F 5.7 °F 90% 30.34 in 1.0 mi NNE 21.9 mph 26.5 mph N/A   Overcast
7:55 AM 7.7 °F -11.7 °F 5.4 °F 90% 30.34 in 1.2 mi NNE 19.6 mph 25.3 mph N/A   Overcast
8:15 AM 7.5 °F -11.4 °F 5.0 °F 89% 30.35 in 1.5 mi North 18.4 mph 25.3 mph N/A   Overcast
8:35 AM 7.3 °F -11.7 °F 4.8 °F 89% 30.37 in 1.8 mi NNE 18.4 mph - N/A   Overcast
8:55 AM 7.0 °F -12.1 °F 4.3 °F 89% 30.37 in 1.5 mi NNE 18.4 mph 24.2 mph N/A   Overcast
9:15 AM 6.8 °F -13.4 °F 3.9 °F 88% 30.36 in 1.8 mi North 20.7 mph 26.5 mph N/A   Overcast
9:35 AM 6.4 °F -14.3 °F 3.6 °F 88% 30.36 in 0.8 mi North 21.9 mph - N/A   Overcast
9:55 AM 5.9 °F -14.5 °F 3.0 °F 88% 30.37 in 1.2 mi North 20.7 mph 27.6 mph N/A   Overcast
10:15 AM 5.7 °F -14.8 °F 2.5 °F 86% 30.37 in 1.5 mi North 20.7 mph - N/A   Overcast
10:35 AM 5.4 °F -14.8 °F 2.3 °F 87% 30.37 in 1.2 mi NNE 19.6 mph 25.3 mph N/A   Overcast
10:55 AM 5.2 °F -16.0 °F 2.1 °F 87% 30.36 in 1.0 mi North 21.9 mph 29.9 mph N/A   Overcast
11:15 AM 5.0 °F -15.7 °F 2.1 °F 88% 30.37 in 1.0 mi North 20.7 mph 27.6 mph N/A   Overcast
11:35 AM 5.2 °F -16.4 °F 1.9 °F 86% 30.37 in 1.2 mi North 23.0 mph 26.5 mph N/A   Overcast
11:55 AM 5.4 °F -14.8 °F 2.1 °F 86% 30.37 in 0.8 mi North 19.6 mph 29.9 mph N/A   Overcast
12:15 PM 5.4 °F -14.8 °F 2.1 °F 86% 30.36 in 0.8 mi North 19.6 mph - N/A   Overcast
12:35 PM 5.4 °F -14.8 °F 2.3 °F 87% 30.35 in 0.8 mi North 19.6 mph 26.5 mph N/A   Overcast
12:55 PM 5.4 °F -14.8 °F 2.3 °F 87% 30.33 in 0.8 mi North 19.6 mph - N/A   Overcast
1:15 PM 5.4 °F -16.2 °F 2.3 °F 87% 30.32 in 0.8 mi North 23.0 mph 27.6 mph N/A   Overcast
1:35 PM 5.5 °F -16.8 °F 2.5 °F 87% 30.30 in 0.8 mi North 25.3 mph 32.2 mph N/A   Overcast
1:55 PM 5.0 °F -17.1 °F 1.9 °F 87% 30.30 in 0.8 mi North 24.2 mph 27.6 mph N/A   Overcast
2:15 PM 4.5 °F -16.4 °F 1.4 °F 87% 30.30 in 0.8 mi North 20.7 mph 26.5 mph N/A   Overcast
2:35 PM 4.5 °F -15.9 °F 1.4 °F 87% 30.30 in 0.8 mi North 19.6 mph - N/A   Overcast
2:55 PM 3.9 °F -16.1 °F 0.7 °F 86% 30.31 in 0.8 mi North 18.4 mph - N/A   Overcast
3:15 PM 3.4 °F -18.3 °F -0.0 °F 86% 30.30 in 1.0 mi North 21.9 mph 29.9 mph N/A   Overcast
3:35 PM 2.5 °F -19.5 °F -0.9 °F 86% 30.30 in 1.0 mi North 21.9 mph 29.9 mph N/A   Overcast
3:55 PM 1.8 °F -21.0 °F -1.7 °F 86% 30.30 in 1.2 mi North 23.0 mph 29.9 mph N/A   Overcast
4:15 PM 1.4 °F -22.7 °F -1.8 °F 86% 30.30 in 1.2 mi North 26.5 mph 34.5 mph N/A   Overcast
4:35 PM 1.2 °F -22.1 °F -2.2 °F 86% 30.30 in 1.2 mi North 24.2 mph 27.6 mph N/A   Overcast
4:55 PM 1.0 °F -21.9 °F -2.2 °F 86% 30.33 in 1.8 mi North 23.0 mph 29.9 mph N/A   Overcast
5:15 PM 1.0 °F -21.4 °F -2.4 °F 86% 30.33 in - North 21.9 mph 31.1 mph N/A   Overcast
5:35 PM 0.9 °F -22.2 °F -2.9 °F 84% 30.34 in - North 23.0 mph 28.8 mph N/A   Overcast
5:55 PM 0.5 °F -22.2 °F -3.3 °F 84% 30.35 in - North 21.9 mph 28.8 mph N/A   Overcast
6:15 PM 0.3 °F -22.9 °F -3.6 °F 83% 30.36 in - North 23.0 mph 29.9 mph N/A   Overcast
6:55 PM 0.1 °F -24.0 °F -4.0 °F 83% 30.34 in - North 25.3 mph 32.2 mph N/A   Overcast
7:15 PM -0.0 °F -24.3 °F -4.2 °F 83% 30.33 in - North 25.3 mph 33.4 mph N/A   Overcast
7:35 PM -0.4 °F -23.3 °F -4.5 °F 83% 30.33 in - North 21.9 mph 34.5 mph N/A   Overcast
7:55 PM -0.4 °F -25.2 °F -4.7 °F 82% 30.32 in - North 26.5 mph 32.2 mph N/A   Unknown
8:15 PM -0.4 °F -25.6 °F -4.9 °F 81% 30.31 in - North 27.6 mph 33.4 mph N/A   Overcast
8:35 PM -0.0 °F -24.3 °F -4.2 °F 83% 30.31 in - North 25.3 mph 36.8 mph N/A   Unknown
8:55 PM 0.3 °F -23.8 °F -4.2 °F 81% 30.31 in - North 25.3 mph 34.5 mph N/A   Overcast
9:15 PM 0.5 °F -24.4 °F -4.0 °F 81% 30.31 in - North 27.6 mph 34.5 mph N/A   Overcast
9:35 PM 0.5 °F -24.0 °F -4.0 °F 81% 30.32 in - North 26.5 mph 36.8 mph N/A   Overcast
9:55 PM 0.1 °F -24.0 °F -4.0 °F 83% 30.32 in 1.0 mi North 25.3 mph 36.8 mph N/A   Overcast
10:15 PM -0.0 °F -25.5 °F -4.4 °F 82% 30.32 in - North 28.8 mph 36.8 mph N/A   Overcast
10:35 PM -0.2 °F -24.9 °F -4.9 °F 81% 30.32 in - North 26.5 mph 36.8 mph N/A   Overcast
11:35 PM -0.6 °F -25.4 °F -5.1 °F 81% 30.33 in - North 26.5 mph 35.7 mph N/A   Overcast
11:55 PM -0.8 °F -25.6 °F -5.4 °F 81% 30.34 in - North 26.5 mph 32.2 mph N/A   Overcast